period_start,C,m1,H,J0,J1,J2,J3,J4,J5,JA,JB,JC,JD,JJ,JK,JN,#
2013-12-21 00:00:58,0.17,0.18,0.00,23.13,27.65,30.14,6.18,31.46,1026.61,2041.84,3484.16,3278.77,3565.14,349.85,326.87,1.02,0000 0000 0000 0000 000000
2013-12-21 00:01:58,0.16,0.18,0.00,23.09,27.65,30.13,6.08,31.96,1026.55,2041.85,3483.68,3278.33,3564.76,350.32,327.32,1.03,0000 0000 0000 0000 000000
2013-12-21 00:02:58,0.26,0.18,0.00,23.09,27.65,30.17,6.08,31.58,1026.59,2041.81,3483.25,3278.09,3564.29,350.63,327.63,1.04,0000 0000 0000 0000 000000
2013-12-21 00:03:58,0.08,0.18,0.00,23.13,27.65,30.15,6.01,31.42,1026.68,2041.69,3482.80,3277.74,3564.04,349.74,326.80,1.04,0000 0000 0000 0000 000000
2013-12-21 00:04:58,0.08,0.18,0.00,23.17,27.64,30.14,5.94,31.54,1026.69,2041.63,3482.30,3277.30,3563.51,348.93,325.99,1.05,0000 0000 0000 0000 000000
2013-12-21 00:05:59,0.21,0.19,0.00,23.20,27.65,30.14,6.11,31.71,1026.68,2041.68,3481.92,3277.10,3563.18,350.47,327.40,1.05,0000 0000 0000 0000 000000
2013-12-21 00:06:59,0.13,0.19,0.00,23.24,27.65,30.16,6.13,31.92,1026.63,2041.71,3481.36,3276.81,3562.91,349.74,326.56,1.06,0000 0000 0000 0000 000000
2013-12-21 00:07:59,0.18,0.19,0.00,23.23,27.65,30.14,6.16,31.75,1026.71,2041.63,3480.95,3276.32,3562.41,350.22,327.13,1.06,0000 0000 0000 0000 000000
2013-12-21 00:08:59,0.20,0.19,0.00,23.20,27.64,30.11,6.09,31.83,1026.79,2041.58,3480.40,3276.11,3562.14,350.32,327.29,1.07,0000 0000 0000 0000 000000
2013-12-21 00:09:59,0.07,0.19,0.00,23.23,27.64,30.09,6.01,31.71,1026.80,2041.67,3480.06,3275.89,3561.97,349.69,326.68,1.08,0000 0000 0000 0000 000000
2013-12-21 00:10:59,0.19,0.19,0.00,23.23,27.64,30.11,6.08,31.63,1026.83,2041.77,3479.49,3275.37,3561.48,349.73,326.72,1.08,0000 0000 0000 0000 000000
2013-12-21 00:12:00,0.33,0.19,0.00,23.21,27.64,30.11,6.11,31.54,1026.85,2041.74,3479.14,3275.13,3561.17,349.28,326.40,1.09,0000 0000 0000 0000 000000
2013-12-21 00:13:00,0.06,0.19,0.00,23.20,27.64,30.11,6.17,31.88,1026.82,2041.83,3478.61,3274.95,3560.98,350.63,327.59,1.09,0000 0000 0000 0000 000000
2013-12-21 00:14:00,0.24,0.19,0.00,23.20,27.64,30.14,5.92,31.13,1026.82,2041.86,3478.22,3274.48,3560.48,349.37,326.40,1.10,0000 0000 0000 0000 000000
2013-12-21 00:15:00,0.23,0.20,0.00,23.16,27.64,30.15,6.05,31.54,1026.83,2041.90,3477.80,3274.17,3560.17,349.83,326.88,1.11,0000 0000 0000 0000 000000
2013-12-21 00:16:01,0.18,0.20,0.00,23.16,27.64,30.15,6.11,31.83,1026.85,2041.86,3477.30,3273.86,3559.84,349.88,326.93,1.11,0000 0000 0000 0000 000000
2013-12-21 00:17:01,0.13,0.20,0.00,23.14,27.64,30.16,6.17,31.92,1026.83,2041.82,3476.80,3273.35,3559.34,350.48,327.51,1.12,0000 0000 0000 0000 000000
2013-12-21 00:18:01,0.20,0.20,0.00,23.19,27.64,30.13,6.05,31.33,1026.85,2041.77,3476.30,3273.12,3559.07,349.79,326.82,1.12,0000 0000 0000 0000 000000
2013-12-21 00:19:02,0.10,0.20,0.00,23.17,27.63,30.12,6.05,31.63,1026.85,2041.62,3475.85,3272.81,3558.55,350.56,327.21,1.13,0000 0000 0000 0000 000000
2013-12-21 00:20:02,0.08,0.20,0.00,23.20,27.63,30.12,6.03,31.46,1026.82,2041.69,3475.33,3272.31,3558.20,349.79,326.80,1.13,0000 0000 0000 0000 000000
2013-12-21 00:21:02,0.30,0.20,0.00,23.20,27.63,30.14,6.06,31.29,1026.81,2041.68,3475.04,3272.11,3557.99,350.67,327.61,1.14,0000 0000 0000 0000 000000
2013-12-21 00:22:02,0.09,0.20,0.00,23.18,27.63,30.13,6.05,31.58,1026.81,2041.74,3474.49,3271.95,3557.55,349.74,326.77,1.15,0000 0000 0000 0000 000000
2013-12-21 00:23:03,0.20,0.20,0.00,23.14,27.63,30.13,5.99,31.79,1026.83,2041.75,3474.10,3271.43,3557.20,349.54,327.00,1.15,0000 0000 0000 0000 000000
2013-12-21 00:24:03,0.19,0.20,0.00,23.11,27.63,30.14,6.13,31.83,1026.82,2041.80,3473.53,3271.15,3556.97,350.80,327.83,1.16,0000 0000 0000 0000 000000
2013-12-21 00:25:03,0.20,0.21,0.00,23.16,27.63,30.13,6.15,31.54,1026.84,2041.81,3473.15,3270.81,3556.45,350.13,327.17,1.16,0000 0000 0000 0000 000000
2013-12-21 00:26:03,0.20,0.21,0.00,23.21,27.63,30.11,6.04,31.63,1026.86,2041.80,3472.63,3270.36,3556.15,349.67,326.69,1.17,0000 0000 0000 0000 000000
2013-12-21 00:27:03,0.16,0.21,0.00,23.22,27.62,30.10,6.02,31.71,1026.86,2041.77,3472.23,3270.13,3555.88,349.67,327.31,1.18,0000 0000 0000 0000 000000
2013-12-21 00:28:04,0.13,0.21,0.00,23.25,27.63,30.09,5.98,31.92,1026.87,2041.83,3471.87,3269.93,3555.38,350.16,327.11,1.18,0000 0000 0000 0000 000000
2013-12-21 00:29:04,0.21,0.21,0.00,23.27,27.62,30.11,6.04,31.71,1026.86,2041.86,3471.35,3269.43,3555.11,349.95,326.88,1.19,0000 0000 0000 0000 000000
2013-12-21 00:30:04,0.22,0.21,0.00,23.22,27.62,30.11,6.12,31.88,1026.85,2041.81,3470.89,3269.15,3554.62,351.06,327.97,1.19,0000 0000 0000 0000 000000
2013-12-21 00:31:04,0.12,0.21,0.00,23.21,27.62,30.13,6.01,31.88,1026.81,2041.80,3470.35,3268.96,3554.23,349.87,326.87,1.20,0000 0000 0000 0000 000000
2013-12-21 00:32:04,0.17,0.21,0.00,23.29,27.62,30.12,6.15,31.88,1026.72,2041.82,3470.08,3268.54,3554.05,350.66,327.49,1.20,0000 0000 0000 0000 000000
2013-12-21 00:33:05,0.15,0.21,0.00,23.28,27.62,30.11,6.05,31.46,1026.65,2041.88,3469.54,3268.19,3553.71,350.25,327.08,1.21,0000 0000 0000 0000 000000
2013-12-21 00:34:05,0.24,0.22,0.00,23.27,27.62,30.14,6.13,32.17,1026.66,2041.88,3469.16,3267.94,3553.27,350.41,327.09,1.22,0000 0000 0000 0000 000000
2013-12-21 00:35:05,0.15,0.22,0.00,23.28,27.62,30.16,6.02,31.50,1026.58,2041.89,3468.69,3267.46,3553.05,349.49,326.44,1.22,0000 0000 0000 0000 000000
2013-12-21 00:36:05,0.18,0.22,0.00,23.30,27.62,30.15,6.20,31.83,1026.57,2041.91,3468.25,3267.17,3552.59,350.97,327.57,1.23,0000 0000 0000 0000 000000
2013-12-21 00:37:06,0.20,0.22,0.00,23.28,27.62,30.13,6.09,31.38,1026.58,2041.88,3467.75,3266.96,3552.21,349.62,326.94,1.23,0000 0000 0000 0000 000000
2013-12-21 00:38:06,0.13,0.22,0.00,23.25,27.62,30.16,5.98,31.25,1026.55,2041.93,3467.27,3266.44,3551.95,348.90,325.51,1.24,0000 0000 0000 0000 000000
2013-12-21 00:39:06,0.25,0.22,0.00,23.24,27.62,30.15,6.02,31.71,1026.45,2041.91,3466.83,3266.15,3551.44,349.95,327.01,1.25,0000 0000 0000 0000 000000
2013-12-21 00:40:06,0.16,0.22,0.00,23.23,27.62,30.16,5.97,31.92,1026.44,2041.94,3466.32,3265.86,3551.12,349.85,326.98,1.25,0000 0000 0000 0000 000000
2013-12-21 00:41:06,0.17,0.22,0.00,23.25,27.62,30.19,6.06,31.71,1026.47,2041.92,3465.91,3265.37,3550.56,349.97,326.49,1.26,0000 0000 0000 0000 000000
2013-12-21 00:42:07,0.21,0.22,0.00,23.21,27.62,30.16,5.97,31.83,1026.46,2041.89,3465.35,3265.13,3550.19,349.62,326.51,1.26,0000 0000 0000 0000 000000
2013-12-21 00:43:07,0.13,0.22,0.00,23.22,27.62,30.16,6.20,32.25,1026.40,2041.85,3464.82,3264.74,3549.83,351.02,327.80,1.27,0000 0000 0000 0000 000000
2013-12-21 00:44:07,0.19,0.23,0.00,23.26,27.62,30.16,6.08,32.25,1026.40,2041.84,3464.30,3264.29,3549.33,349.85,326.66,1.28,0000 0000 0000 0000 000000
2013-12-21 00:45:07,0.20,0.23,0.00,23.29,27.62,30.17,6.08,32.21,1026.40,2041.78,3463.72,3264.03,3548.95,349.88,326.66,1.28,0000 0000 0000 0000 000000
2013-12-21 00:46:07,0.13,0.23,0.00,23.34,27.62,30.17,6.13,31.71,1026.40,2041.63,3463.24,3263.51,3548.40,351.63,328.23,1.29,0000 0000 0000 0000 000000
2013-12-21 00:47:08,0.11,0.23,0.00,23.37,27.62,30.16,6.06,31.50,1026.40,2041.65,3462.75,3263.18,3548.14,349.73,326.42,1.29,0000 0000 0000 0000 000000
2013-12-21 00:48:08,0.19,0.23,0.00,23.37,27.62,30.15,6.20,32.21,1026.40,2041.79,3462.28,3263.05,3547.80,350.54,327.17,1.30,0000 0000 0000 0000 000000
2013-12-21 00:49:08,0.26,0.23,0.00,23.32,27.62,30.13,6.02,31.54,1026.43,2041.85,3461.86,3262.69,3547.31,350.25,326.81,1.30,0000 0000 0000 0000 000000
2013-12-21 00:50:08,0.22,0.23,0.00,23.36,27.62,30.16,6.00,31.63,1026.40,2041.84,3461.33,3262.27,3547.10,350.05,326.58,1.31,0000 0000 0000 0000 000000
2013-12-21 00:51:09,0.19,0.23,0.00,23.45,27.62,30.15,5.85,32.00,1026.40,2041.87,3460.95,3262.09,3546.63,348.96,325.70,1.32,0000 0000 0000 0000 000000
2013-12-21 00:52:09,0.17,0.23,0.00,23.53,27.62,30.15,6.16,31.88,1026.38,2041.79,3460.38,3261.70,3546.22,350.79,327.23,1.32,0000 0000 0000 0000 000000
2013-12-21 00:53:09,0.15,0.24,0.00,23.57,27.62,30.19,6.22,31.75,1026.38,2041.63,3459.89,3261.26,3545.80,350.66,326.87,1.33,0000 0000 0000 0000 000000
2013-12-21 00:54:10,0.06,0.24,0.00,23.51,27.62,30.18,5.97,32.17,1026.39,2041.48,3459.34,3260.95,3545.32,349.92,326.86,1.33,0000 0000 0000 0000 000000
2013-12-21 00:55:10,0.08,0.24,0.00,23.54,27.62,30.19,6.13,32.08,1026.38,2041.51,3458.97,3260.43,3545.05,350.35,326.82,1.34,0000 0000 0000 0000 000000
2013-12-21 00:56:10,0.23,0.24,0.00,23.61,27.62,30.16,6.04,32.17,1026.38,2041.55,3458.40,3260.15,3544.57,350.41,326.79,1.35,0000 0000 0000 0000 000000
2013-12-21 00:57:10,0.23,0.24,0.00,23.63,27.62,30.18,6.16,32.04,1026.38,2041.62,3458.06,3259.94,3544.21,350.11,326.48,1.35,0000 0000 0000 0000 000000
2013-12-21 00:58:11,0.17,0.24,0.00,23.60,27.62,30.18,6.07,32.46,1026.38,2041.76,3457.49,3259.46,3544.04,350.79,327.15,1.36,0000 0000 0000 0000 000000
2013-12-21 00:59:11,0.29,0.24,0.00,23.53,27.62,30.20,6.07,32.25,1026.38,2041.76,3457.09,3259.16,3543.56,350.85,327.39,1.36,0000 0000 0000 0000 000000
2013-12-21 01:00:11,0.20,0.24,0.00,23.51,27.62,30.19,6.05,32.17,1026.35,2041.74,3456.52,3258.98,3543.20,350.49,326.57,1.37,0000 0000 0000 0000 000000
2013-12-21 01:01:11,0.13,0.24,0.00,23.52,27.62,30.20,5.94,32.17,1026.33,2041.86,3456.18,3258.48,3542.95,349.80,326.43,1.37,0000 0000 0000 0000 000000
2013-12-21 01:02:12,0.28,0.25,0.00,23.47,27.62,30.18,5.93,31.96,1026.35,2041.88,3455.74,3258.17,3542.43,348.23,324.90,1.38,0000 0000 0000 0000 000000
2013-12-21 01:03:12,0.19,0.25,0.00,23.48,27.62,30.23,6.13,32.00,1026.37,2041.90,3455.26,3257.90,3542.13,350.24,326.77,1.39,0000 0000 0000 0000 000000
2013-12-21 01:04:12,0.19,0.25,0.00,23.48,27.62,30.25,6.15,32.17,1026.38,2041.91,3454.82,3257.41,3541.70,350.68,327.19,1.39,0000 0000 0000 0000 000000
2013-12-21 01:05:12,0.21,0.25,0.00,23.56,27.62,30.24,5.92,32.13,1026.38,2041.88,3454.32,3257.15,3541.26,348.89,325.44,1.40,0000 0000 0000 0000 000000
2013-12-21 01:06:13,0.16,0.25,0.00,23.58,27.62,30.22,5.98,32.04,1026.38,2041.90,3453.96,3256.83,3541.05,350.16,326.59,1.40,0000 0000 0000 0000 000000
2013-12-21 01:07:13,0.16,0.25,0.00,23.53,27.62,30.22,6.08,32.17,1026.38,2041.94,3453.43,3256.38,3540.64,349.92,326.42,1.41,0000 0000 0000 0000 000000
2013-12-21 01:08:13,0.22,0.25,0.00,23.59,27.62,30.20,6.04,31.96,1026.38,2041.96,3453.10,3256.13,3540.24,349.47,325.93,1.42,0000 0000 0000 0000 000000
2013-12-21 01:09:13,0.15,0.25,0.00,23.63,27.61,30.20,6.09,32.13,1026.40,2041.94,3452.55,3255.91,3539.97,349.71,325.78,1.42,0000 0000 0000 0000 000000
2013-12-21 01:10:14,0.15,0.25,0.00,23.68,27.61,30.22,6.02,32.04,1026.38,2041.95,3452.13,3255.41,3539.41,350.12,326.28,1.43,0000 0000 0000 0000 000000
2013-12-21 01:11:14,0.23,0.26,0.00,23.68,27.61,30.26,6.04,31.88,1026.38,2041.96,3451.52,3255.14,3539.10,350.18,326.40,1.43,0000 0000 0000 0000 000000
2013-12-21 01:12:14,0.18,0.26,0.00,23.75,27.60,30.25,5.92,32.08,1026.40,2041.96,3451.16,3254.84,3538.66,349.64,325.93,1.44,0000 0000 0000 0000 000000
2013-12-21 01:13:15,0.18,0.26,0.00,23.69,27.60,30.24,6.04,31.96,1026.40,2041.96,3450.59,3254.35,3538.25,350.32,326.52,1.45,0000 0000 0000 0000 000000
2013-12-21 01:14:15,0.20,0.26,0.00,23.66,27.60,30.32,6.02,32.08,1026.39,2041.92,3450.20,3254.11,3537.95,350.04,326.11,1.45,0000 0000 0000 0000 000000
2013-12-21 01:15:15,0.13,0.26,0.00,23.78,27.60,30.33,6.06,32.08,1026.40,2041.91,3449.71,3253.69,3537.42,349.74,326.43,1.46,0000 0000 0000 0000 000000
2013-12-21 01:16:16,0.19,0.26,0.00,23.84,27.60,30.34,6.03,31.88,1026.41,2041.93,3449.26,3253.27,3537.15,350.19,325.97,1.46,0000 0000 0000 0000 000000
2013-12-21 01:17:16,0.19,0.26,0.00,23.76,27.60,30.44,6.07,31.83,1026.40,2041.94,3448.83,3253.07,3536.89,350.07,326.31,1.47,0000 0000 0000 0000 000000
2013-12-21 01:18:16,0.13,0.26,0.00,23.75,27.60,30.44,6.03,31.88,1026.41,2041.92,3448.32,3252.69,3536.38,349.30,325.72,1.47,0000 0000 0000 0000 000000
2013-12-21 01:19:16,0.20,0.26,0.00,23.78,27.60,30.35,6.11,31.67,1026.42,2041.93,3447.90,3252.27,3536.12,349.83,326.01,1.48,0000 0000 0000 0000 000000
2013-12-21 01:20:17,0.19,0.26,0.00,23.81,27.60,30.31,5.84,31.71,1026.42,2041.93,3447.34,3252.05,3535.66,350.09,325.99,1.49,0000 0000 0000 0000 000000
2013-12-21 01:21:17,0.19,0.27,0.00,23.87,27.60,30.29,6.05,32.08,1026.42,2041.93,3446.90,3251.54,3535.24,350.12,326.24,1.49,0000 0000 0000 0000 000000
2013-12-21 01:22:17,0.20,0.27,0.00,23.95,27.60,30.35,6.06,32.00,1026.41,2041.94,3446.38,3251.19,3534.97,350.26,326.29,1.50,0000 0000 0000 0000 000000
2013-12-21 01:23:17,0.19,0.27,0.00,23.94,27.60,30.44,5.94,31.79,1026.41,2041.91,3446.01,3250.97,3534.44,349.12,325.24,1.50,0000 0000 0000 0000 000000
2013-12-21 01:24:18,0.15,0.27,0.00,24.01,27.60,30.40,6.05,31.58,1026.38,2041.90,3445.41,3250.50,3534.14,349.55,325.55,1.51,0000 0000 0000 0000 000000
2013-12-21 01:25:18,0.18,0.27,0.00,23.95,27.60,30.32,6.19,31.96,1026.40,2041.84,3445.06,3250.16,3533.68,350.49,326.49,1.52,0000 0000 0000 0000 000000
2013-12-21 01:26:18,0.12,0.27,0.00,23.93,27.60,30.25,6.04,31.58,1026.39,2041.80,3444.46,3249.91,3533.26,350.68,326.70,1.52,0000 0000 0000 0000 000000
2013-12-21 01:27:19,0.17,0.27,0.00,23.92,27.60,30.23,6.02,31.75,1026.38,2041.83,3444.14,3249.39,3533.06,349.19,325.66,1.53,0000 0000 0000 0000 000000
2013-12-21 01:28:19,0.21,0.27,0.00,24.01,27.60,30.23,5.85,31.50,1026.41,2041.90,3443.64,3249.14,3532.62,349.07,325.12,1.53,0000 0000 0000 0000 000000
2013-12-21 01:29:19,0.21,0.27,0.00,23.98,27.60,30.26,6.10,31.75,1026.39,2041.95,3443.23,3248.94,3532.23,350.37,326.34,1.54,0000 0000 0000 0000 000000
2013-12-21 01:30:19,0.20,0.28,0.00,23.83,27.60,30.24,6.12,31.79,1026.40,2041.96,3442.71,3248.46,3531.98,349.85,326.02,1.54,0000 0000 0000 0000 000000
2013-12-21 01:31:20,0.20,0.28,0.00,23.86,27.59,30.24,6.05,31.54,1026.43,2041.96,3442.25,3248.15,3531.44,350.42,326.59,1.55,0000 0000 0000 0000 000000
2013-12-21 01:32:20,0.18,0.28,0.00,23.94,27.59,30.24,6.16,31.83,1026.43,2041.97,3441.80,3247.90,3531.16,350.76,326.77,1.56,0000 0000 0000 0000 000000
2013-12-21 01:33:20,0.16,0.28,0.00,23.97,27.59,30.25,5.98,31.54,1026.41,2041.98,3441.32,3247.40,3530.92,349.50,325.08,1.56,0000 0000 0000 0000 000000
2013-12-21 01:34:21,0.21,0.28,0.00,24.00,27.58,30.23,5.92,31.42,1026.41,2041.98,3440.99,3247.15,3530.41,348.92,324.98,1.57,0000 0000 0000 0000 000000
2013-12-21 01:35:21,0.15,0.28,0.00,24.02,27.58,30.19,6.12,31.88,1026.39,2041.94,3440.43,3246.88,3530.12,350.63,326.34,1.57,0000 0000 0000 0000 000000
2013-12-21 01:36:21,0.15,0.28,0.00,24.06,27.57,30.19,6.07,31.50,1026.41,2041.95,3440.10,3246.38,3529.66,349.81,325.71,1.58,0000 0000 0000 0000 000000
2013-12-21 01:37:22,0.20,0.28,0.00,24.09,27.57,30.23,5.99,31.58,1026.42,2041.95,3439.55,3246.14,3529.24,349.21,325.37,1.59,0000 0000 0000 0000 000000
2013-12-21 01:38:22,0.16,0.29,0.00,24.05,27.57,30.24,6.17,31.75,1026.40,2041.97,3439.14,3245.91,3529.03,350.10,326.02,1.59,0000 0000 0000 0000 000000
2013-12-21 01:39:22,0.19,0.29,0.00,24.02,27.57,30.24,6.07,31.67,1026.42,2041.99,3438.52,3245.39,3528.51,350.68,326.60,1.60,0000 0000 0000 0000 000000
2013-12-21 01:40:23,0.21,0.29,0.00,23.91,27.57,30.22,5.96,31.71,1026.46,2041.98,3438.18,3245.13,3528.18,350.66,326.71,1.60,0000 0000 0000 0000 000000
2013-12-21 01:41:23,0.13,0.29,0.00,23.81,27.57,30.20,5.88,31.67,1026.43,2041.99,3437.76,3245.00,3528.03,348.77,325.05,1.61,0000 0000 0000 0000 000000
2013-12-21 01:42:23,0.14,0.29,0.00,23.80,27.57,30.23,6.10,31.75,1026.42,2041.99,3437.29,3244.54,3527.62,350.45,326.62,1.62,0000 0000 0000 0000 000000
2013-12-21 01:43:24,0.19,0.29,0.00,23.82,27.57,30.28,6.08,31.79,1026.40,2041.99,3436.78,3244.19,3527.23,350.11,326.32,1.62,0000 0000 0000 0000 000000
2013-12-21 01:44:24,0.18,0.29,0.00,23.89,27.57,30.29,6.02,31.92,1026.41,2041.97,3436.29,3243.85,3526.74,350.15,326.24,1.63,0000 0000 0000 0000 000000
2013-12-21 01:45:24,0.18,0.29,0.00,23.90,27.57,30.36,6.00,32.13,1026.47,2041.95,3435.82,3243.36,3526.27,349.23,325.40,1.63,0000 0000 0000 0000 000000
2013-12-21 01:46:24,0.19,0.29,0.00,23.98,27.57,30.44,6.07,31.67,1026.66,2041.95,3435.31,3243.13,3526.07,350.24,325.78,1.64,0000 0000 0000 0000 000000
2013-12-21 01:47:25,0.16,0.29,0.00,24.16,27.57,30.36,6.14,31.50,1026.73,2041.98,3434.86,3242.75,3525.57,350.80,326.65,1.64,0000 0000 0000 0000 000000
2013-12-21 01:48:25,0.22,0.29,0.00,24.27,27.57,30.26,6.08,31.67,1026.63,2041.97,3434.32,3242.28,3525.20,350.05,325.81,1.65,0000 0000 0000 0000 000000
2013-12-21 01:49:25,0.20,0.30,0.00,24.24,27.57,30.20,6.14,31.67,1026.55,2041.96,3433.86,3242.06,3524.79,349.96,325.46,1.66,0000 0000 0000 0000 000000
2013-12-21 01:50:25,0.17,0.30,0.00,24.23,27.57,30.22,5.99,31.54,1026.57,2041.95,3433.33,3241.62,3524.30,349.79,325.88,1.66,0000 0000 0000 0000 000000
2013-12-21 01:51:25,0.19,0.30,0.00,24.06,27.57,30.22,5.98,31.29,1026.56,2041.94,3432.89,3241.23,3524.10,349.06,325.25,1.67,0000 0000 0000 0000 000000
2013-12-21 01:52:26,0.17,0.30,0.00,24.05,27.57,30.23,6.18,31.58,1026.54,2041.98,3432.35,3241.04,3523.75,350.19,326.17,1.67,0000 0000 0000 0000 000000
2013-12-21 01:53:26,0.19,0.30,0.00,24.05,27.57,30.25,6.10,31.46,1026.47,2041.98,3432.07,3240.58,3523.30,350.74,326.64,1.68,0000 0000 0000 0000 000000
2013-12-21 01:54:26,0.17,0.30,0.00,24.05,27.57,30.26,5.89,31.54,1026.40,2041.98,3431.59,3240.23,3523.08,349.19,325.05,1.69,0000 0000 0000 0000 000000
2013-12-21 01:55:27,0.17,0.30,0.00,24.12,27.56,30.23,6.05,32.25,1026.40,2041.99,3431.14,3240.00,3522.58,349.85,325.86,1.69,0000 0000 0000 0000 000000
2013-12-21 01:56:27,0.18,0.30,0.00,24.13,27.56,30.27,5.96,31.54,1026.38,2041.97,3430.51,3239.48,3522.20,349.61,325.47,1.70,0000 0000 0000 0000 000000
2013-12-21 01:57:27,0.20,0.30,0.00,24.05,27.55,30.29,6.06,31.54,1026.39,2041.98,3430.17,3239.17,3521.77,349.92,325.86,1.70,0000 0000 0000 0000 000000
2013-12-21 01:58:27,0.18,0.31,0.00,24.01,27.55,30.32,5.98,31.67,1026.38,2041.98,3429.60,3238.90,3521.30,350.28,326.57,1.71,0000 0000 0000 0000 000000
2013-12-21 01:59:28,0.20,0.31,0.00,23.93,27.55,30.28,5.98,31.58,1026.40,2041.99,3429.20,3238.36,3521.07,350.73,326.75,1.71,0000 0000 0000 0000 000000
2013-12-21 02:00:28,0.19,0.31,0.00,23.91,27.55,30.29,6.24,31.83,1026.39,2041.97,3428.69,3238.13,3520.59,351.73,327.69,1.72,0000 0000 0000 0000 000000
2013-12-21 02:01:28,0.16,0.31,0.00,23.97,27.55,30.26,6.08,31.79,1026.38,2041.96,3428.25,3237.84,3520.22,349.94,325.96,1.73,0000 0000 0000 0000 000000
2013-12-21 02:02:28,0.18,0.31,0.00,24.03,27.55,30.24,6.10,31.75,1026.39,2041.97,3427.75,3237.33,3520.02,349.99,325.95,1.73,0000 0000 0000 0000 000000
2013-12-21 02:03:29,0.20,0.31,0.00,24.14,27.55,30.28,6.02,31.29,1026.39,2041.98,3427.26,3237.11,3519.51,350.12,325.94,1.74,0000 0000 0000 0000 000000
2013-12-21 02:04:29,0.17,0.31,0.00,24.09,27.55,30.26,6.11,31.42,1026.38,2041.99,3426.84,3236.82,3519.18,350.38,326.23,1.74,0000 0000 0000 0000 000000
2013-12-21 02:05:29,0.18,0.31,0.00,24.06,27.55,30.21,6.01,31.33,1026.38,2041.98,3426.32,3236.34,3518.90,350.15,326.05,1.75,0000 0000 0000 0000 000000
2013-12-21 02:06:29,0.19,0.32,0.00,24.07,27.55,30.18,5.81,31.46,1026.40,2041.97,3425.89,3236.11,3518.38,348.80,324.79,1.76,0000 0000 0000 0000 000000
2013-12-21 02:07:30,0.18,0.32,0.00,24.16,27.55,30.20,6.03,31.75,1026.41,2041.97,3425.34,3235.62,3518.13,349.45,325.30,1.76,0000 0000 0000 0000 000000
2013-12-21 02:08:30,0.20,0.32,0.00,24.18,27.55,30.22,5.96,31.42,1026.40,2041.96,3424.88,3235.23,3517.62,350.23,326.00,1.77,0000 0000 0000 0000 000000
2013-12-21 02:09:30,0.19,0.32,0.00,24.15,27.55,30.21,6.06,31.58,1026.41,2041.98,3424.33,3235.07,3517.22,349.69,325.53,1.77,0000 0000 0000 0000 000000
2013-12-21 02:10:31,0.15,0.32,0.00,24.07,27.55,30.20,6.09,31.58,1026.40,2041.99,3424.03,3234.74,3516.99,350.93,326.76,1.78,0000 0000 0000 0000 000000
2013-12-21 02:11:31,0.18,0.32,0.00,24.06,27.55,30.19,5.86,31.58,1026.41,2041.99,3423.45,3234.26,3516.45,349.50,325.35,1.78,0000 0000 0000 0000 000000
2013-12-21 02:12:31,0.21,0.32,0.00,24.22,27.55,30.17,6.06,31.50,1026.42,2041.98,3422.88,3233.95,3516.14,350.24,325.97,1.79,0000 0000 0000 0000 000000
2013-12-21 02:13:32,0.20,0.32,0.00,24.18,27.55,30.19,6.06,31.75,1026.39,2041.99,3422.32,3233.42,3515.69,350.71,326.44,1.80,0000 0000 0000 0000 000000
2013-12-21 02:14:32,0.22,0.32,0.00,24.21,27.55,30.18,5.90,31.46,1026.38,2041.96,3421.91,3233.15,3515.24,349.67,325.44,1.80,0000 0000 0000 0000 000000
2013-12-21 02:15:33,0.16,0.33,0.00,24.22,27.55,30.20,5.95,31.42,1026.38,2041.97,3421.35,3232.83,3514.96,349.62,325.39,1.81,0000 0000 0000 0000 000000
2013-12-21 02:16:33,0.19,0.33,0.00,24.20,27.55,30.21,5.93,31.54,1026.38,2041.96,3420.83,3232.34,3514.41,349.97,325.72,1.81,0000 0000 0000 0000 000000
2013-12-21 02:17:33,0.20,0.33,0.00,24.13,27.55,30.15,5.98,31.54,1026.38,2041.96,3420.32,3232.12,3514.14,349.62,325.48,1.82,0000 0000 0000 0000 000000
2013-12-21 02:18:33,0.14,0.33,0.00,24.13,27.55,30.14,6.15,31.67,1026.38,2041.98,3419.89,3231.70,3513.71,350.91,326.63,1.83,0000 0000 0000 0000 000000
2013-12-21 02:19:34,0.25,0.33,0.00,24.14,27.55,30.15,6.01,31.58,1026.38,2041.96,3419.35,3231.25,3513.25,349.98,325.81,1.83,0000 0000 0000 0000 000000
2013-12-21 02:20:34,0.18,0.33,0.00,24.15,27.55,30.17,6.16,31.75,1026.38,2041.96,3418.95,3231.00,3512.99,350.53,326.31,1.84,0000 0000 0000 0000 000000
2013-12-21 02:21:34,0.17,0.33,0.00,24.20,27.54,30.17,5.98,31.71,1026.38,2041.96,3418.40,3230.53,3512.46,350.13,325.40,1.84,0000 0000 0000 0000 000000
2013-12-21 02:22:35,0.21,0.33,0.00,24.22,27.54,30.24,5.97,31.50,1026.38,2041.98,3418.07,3230.19,3512.16,350.54,325.99,1.85,0000 0000 0000 0000 000000
2013-12-21 02:23:35,0.17,0.33,0.00,24.23,27.54,30.25,5.87,31.58,1026.38,2041.99,3417.50,3229.94,3511.87,349.13,324.91,1.86,0000 0000 0000 0000 000000
2013-12-21 02:24:35,0.19,0.34,0.00,24.23,27.54,30.26,5.97,31.67,1026.38,2041.98,3417.14,3229.43,3511.34,349.57,325.01,1.86,0000 0000 0000 0000 000000
2013-12-21 02:25:36,0.20,0.34,0.00,24.24,27.54,30.26,6.07,31.67,1026.38,2041.99,3416.56,3229.15,3511.09,351.00,326.64,1.87,0000 0000 0000 0000 000000
2013-12-21 02:26:36,0.15,0.34,0.00,24.22,27.54,30.28,6.00,31.79,1026.38,2041.97,3416.10,3228.81,3510.60,349.77,325.65,1.87,0000 0000 0000 0000 000000
2013-12-21 02:27:36,0.22,0.34,0.00,24.21,27.53,30.23,5.92,31.63,1026.39,2041.98,3415.47,3228.31,3510.20,349.00,325.22,1.88,0000 0000 0000 0000 000000
2013-12-21 02:28:36,0.20,0.34,0.00,24.22,27.53,30.20,6.02,32.04,1026.40,2041.98,3415.10,3228.08,3509.83,350.52,326.05,1.88,0000 0000 0000 0000 000000
2013-12-21 02:29:37,0.18,0.34,0.00,24.24,27.53,30.20,5.97,31.71,1026.42,2041.99,3414.50,3227.68,3509.34,350.26,325.44,1.89,0000 0000 0000 0000 000000
2013-12-21 02:30:37,0.21,0.34,0.00,24.20,27.53,30.26,6.16,31.79,1026.43,2041.99,3414.07,3227.26,3509.05,350.73,326.59,1.90,0000 0000 0000 0000 000000
2013-12-21 02:31:37,0.18,0.34,0.00,24.16,27.52,30.30,6.02,32.00,1026.43,2041.98,3413.47,3227.05,3508.51,349.67,325.51,1.90,0000 0000 0000 0000 000000
2013-12-21 02:32:37,0.19,0.35,0.00,24.23,27.52,30.23,6.15,31.83,1026.42,2041.99,3413.13,3226.55,3508.18,350.69,326.38,1.91,0000 0000 0000 0000 000000
2013-12-21 02:33:38,0.19,0.35,0.00,24.25,27.52,30.18,5.93,31.83,1026.42,2041.99,3412.57,3226.20,3507.90,350.54,326.22,1.91,0000 0000 0000 0000 000000
2013-12-21 02:34:38,0.19,0.35,0.00,24.28,27.52,30.19,6.04,32.08,1026.41,2041.99,3412.17,3225.95,3507.37,349.50,325.22,1.92,0000 0000 0000 0000 000000
2013-12-21 02:35:38,0.19,0.35,0.00,24.30,27.52,30.19,6.06,31.67,1026.42,2041.99,3411.57,3225.41,3507.11,350.81,326.42,1.93,0000 0000 0000 0000 000000
2013-12-21 02:36:39,0.20,0.35,0.00,24.29,27.52,30.16,5.95,31.63,1026.41,2041.99,3411.14,3225.13,3506.57,349.95,325.62,1.93,0000 0000 0000 0000 000000
2013-12-21 02:37:39,0.19,0.35,0.00,24.34,27.52,30.16,6.11,31.79,1026.42,2041.99,3410.53,3224.71,3506.20,350.10,325.70,1.94,0000 0000 0000 0000 000000